{"data":{"norad_id":40420,"epoch":"2026-05-25T03:37:04.578816Z","epoch_age_seconds":52096,"freshness":"FRESH","line1":"1 40420U 15009A   26145.15074744  .00001159  00000+0  82731-4 0  9995","line2":"2 40420  97.8322 201.4826 0015382 335.1560  24.8925 15.06521070615467","mean_motion":15.0652107,"eccentricity":0.0015382,"inclination_deg":97.8322,"raan_deg":201.4826,"arg_perigee_deg":335.156,"mean_anomaly_deg":24.8925,"bstar":8.2731e-5,"rev_number":61546,"period_min":95.584458038811,"perigee_km":536.18852025349,"apogee_km":557.4925210981,"semimajor_km":6924.9775206758,"source":"CELESTRAK","updated_at":"2026-05-25T13:37:55.521292Z"}}